Powrót do katalogu

STARLINK-36157

AktywnyŁącznośćVLEO
NORAD 66933·PAYLOAD·🇺🇸 United States

Wystrzelony Dec 7, 2025 z Vandenberg Space Force Base

Loading…

Następne Przeloty (najbliższe 24 godziny)

TLE

ŚwieżeSource: CelesTrak SupGP

Epoka: Sep 14, 2026, 21:23 UTC

1 66933C 25286J   26257.89145833  .00010834  00000+0  31994-3 0  2574
2 66933  53.1587 196.0821 0001404  94.1815 294.6388 15.34399050    12

Śledź STARLINK-36157 w czasie rzeczywistym z AllMySat

Download on the App Store